User: anonymous   Login
Location: Chiroubles
(46.1812°N, 4.6660°E)
Time: 13:18:47
(UTC+00:00)
Language:

Cosmos 1464 Rocket - Orbit

View from above orbital plane
View from above orbital plane
View from above satellite
View from above satellite

Ground track
Ground track

The orbit data is extracted from the following two-line orbital elements,

1 14085U 83048B   20294.65964905 -.00000018 +00000-0 -33279-4 0  9991
2 14085 082.9410 263.1068 0032139 290.6752 069.0960 13.76295470878679
Epoch (UTC): 20 October 2020 15:49:53
Eccentricity: 0.0032139
inclination: 82.9410°
perigee height: 953 km
apogee height: 1000 km
right ascension of ascending node: 263.1068°
argument of perigee: 290.6752°
revolutions per day: 13.76295470
mean anomaly at epoch: 69.0960°
orbit number at epoch: 87867

The dashed part of the orbit path shows where the satellite is in the earth's shadow,  

DLR